White Mountain, AK

4:45 AM AKDT on October 17, 2017 (GMT -0800)
White Mountain

Weather History for PAWM - December, 2013

Change the Weather History Date:

Saturday, December 28, 2013

  Actual Average (PAOM) Record (PAOM)
Temperature  
Mean Temperature -12 °F -  
Max Temperature -9 °F 17 °F 38 °F (1925)
Min Temperature -14 °F 2 °F -41 °F (1961)
Degree Days  
Heating Degree Days 76    
Moisture  
Dew Point -19 °F    
Average Humidity 70    
Maximum Humidity 75    
Minimum Humidity 65    
Precipitation  
Precipitation 0.00 in - - ()
Sea Level Pressure  
Sea Level Pressure 30.00 in    
Wind  
Wind Speed 11 mph (North)    
Max Wind Speed 15 mph    
Max Gust Speed -    
Visibility 10 miles    
Events      
Averages and records for this station are not official NWS values.
T = Trace of Precipitation, MM = Missing Value Source: NWS Daily Summary

Daily Weather History Graph

Daily Weather History Graph

Search for Another Location

Airport or City:

Trip Planner

Search our weather history database for the weather conditions in past years. The results will help you decide how hot, cold, wet, or windy it might be!

Date:

Astronomy

Dec. 28, 2013 Rise Set
Actual Time 11:57 AM AKST 3:53 PM AKST
Civil Twilight 10:35 AM AKST 5:16 PM AKST
Nautical Twilight 9:24 AM AKST 6:26 PM AKST
Astronomical Twilight 8:23 AM AKST 7:27 PM AKST
Moon 6:40 AM AKST (12/28) 1:55 PM AKST (12/28)
Length of Visible Light 6h 40m
Length of Day
3h 55m
Waning Crescent, 17% of the Moon is Illuminated
Dec 28
Waning Crescent
Jan 1
New
Jan 7
First Quarter
Jan 15
Full
Jan 23
Last Quarter

Hourly Weather History & Observations

Time (AKST) Temp. Windchill Dew Point Humidity Pressure Visibility Wind Dir Wind Speed Gust Speed Precip Events Conditions
12:58 AM -11.0 °F -28.8 °F -18.9 °F 68% 30.05 in 10.0 mi North 9.2 mph - N/A   Clear
1:58 AM -9.9 °F -28.6 °F -18.0 °F 68% 30.04 in 10.0 mi North 10.4 mph - N/A   Clear
2:58 AM -9.9 °F -27.5 °F -18.9 °F 65% 30.03 in 10.0 mi North 9.2 mph - N/A   Clear
3:58 AM -11.0 °F -29.9 °F -18.9 °F 68% 30.03 in 10.0 mi North 10.4 mph - N/A   Clear
4:58 AM -11.0 °F -30.9 °F -18.9 °F 68% 30.02 in 10.0 mi North 11.5 mph - N/A   Clear
5:58 AM -11.0 °F -29.9 °F -18.9 °F 68% 30.01 in 10.0 mi North 10.4 mph - N/A   Clear
6:58 AM -11.0 °F -28.8 °F -18.9 °F 68% 30.01 in 10.0 mi North 9.2 mph - N/A   Clear
7:58 AM -11.9 °F -33.8 °F -20.0 °F 67% 29.99 in 10.0 mi North 13.8 mph - N/A   Clear
8:58 AM -11.9 °F -34.6 °F -18.9 °F 71% 29.99 in 10.0 mi North 15.0 mph - N/A   Clear
9:58 AM -11.9 °F -33.8 °F -18.9 °F 71% 29.99 in 10.0 mi North 13.8 mph - N/A   Clear
10:58 AM -11.0 °F -30.9 °F -18.9 °F 68% 29.99 in 10.0 mi North 11.5 mph - N/A   Clear
11:58 AM -11.9 °F -34.6 °F -18.9 °F 71% 30.00 in 10.0 mi North 15.0 mph - N/A   Clear
12:58 PM -9.9 °F -30.5 °F -18.0 °F 68% 29.99 in 10.0 mi North 12.7 mph - N/A   Clear
1:58 PM -9.0 °F -30.2 °F -18.0 °F 65% 29.99 in 10.0 mi North 13.8 mph - N/A   Clear
2:58 PM -9.9 °F -28.6 °F -18.0 °F 68% 30.00 in 10.0 mi North 10.4 mph - N/A   Clear
3:58 PM -11.9 °F -31.0 °F -18.9 °F 71% 29.99 in 10.0 mi North 10.4 mph - N/A   Clear
4:58 PM -11.9 °F -33.0 °F -18.9 °F 71% 29.99 in 10.0 mi North 12.7 mph - N/A   Clear
5:58 PM -13.0 °F -33.4 °F -18.9 °F 75% 29.99 in 10.0 mi North 11.5 mph - N/A   Clear
6:58 PM -13.0 °F -30.0 °F -18.9 °F 75% 29.99 in 10.0 mi North 8.1 mph - N/A   Clear
7:58 PM -14.1 °F -28.3 °F -20.0 °F 75% 29.99 in 10.0 mi North 5.8 mph - N/A   Clear
8:58 PM -14.1 °F -33.7 °F -20.0 °F 75% 29.98 in 10.0 mi North 10.4 mph - N/A   Clear
9:58 PM -14.1 °F -32.6 °F -20.0 °F 75% 29.99 in 10.0 mi North 9.2 mph - N/A   Clear
10:58 PM -14.1 °F -33.7 °F -20.0 °F 75% 29.99 in 10.0 mi North 10.4 mph - N/A   Clear
11:58 PM -14.1 °F -33.7 °F -20.0 °F 75% 29.99 in 10.0 mi North 10.4 mph - N/A   Clear